SPHERE-1 EYE (55072 NORAD) Tracking and Keplerian Element Data

This shows tracking and keplerian element data for the satellite.

Feedback or suggestion? Click here.




ElementValue
Catalog55072
NameSPHERE-1 EYE
Epoch Orbit1835
Epoch Day123.84292868
Epoch Year2023
RAAN184.2468
Inclination97.4865
Eccentricity0.0015987
Argument of Perigee159.8118
Mean Anonmoly290.3019
Mean Motion15.16489487
Decay Rate0.00011055
L11 55072U 23001BR 23123.84292868 .00011055 00000+0 56888-3 0 9992
L22 55072 97.4865 184.2468 0015987 159.8118 290.3019 15.16489487 18350



Live tracking and technical data element details for SPHERE-1 EYE (NORAD 55072). SPHERE-1 EYE can be tracked NOW for your location showing map with azimuth and elevation plus other details from your city location.







IsCatalogInMostPopularTable: catalog: 55072, numindb: -1

Insert: records affected: 1


GetName: 55072 SPHERE-1 EYE

Hit Count: inserted at: Sun, 28 May 2023 06:48:14 GMT